Stanley, ID

8:30 AM MDT on May 27, 2017 (GMT -0600)
Stanley

Weather History for KSNT - October, 2014

Change the Weather History Date:

Monday, October 27, 2014

  Actual Average Record
Temperature  
Mean Temperature 27 °F 34 °F  
Max Temperature 37 °F 48 °F 69 °F (1983)
Min Temperature 17 °F 20 °F 4 °F (1919)
Degree Days  
Heating Degree Days 38 31  
Month to date heating degree days 583 694  
Since 1 July heating degree days 1334 1735  
Cooling Degree Days 0 0  
Month to date cooling degree days 0 0  
Year to date cooling degree days 16 3  
Moisture  
Dew Point 23 °F    
Average Humidity 74    
Maximum Humidity 92    
Minimum Humidity 56    
Precipitation  
Precipitation 0.12 in 0.07 in 0.35 in (1984)
Month to date precipitation 1.27 1.17  
Year to date precipitation 17.18 13.38  
Sea Level Pressure  
Sea Level Pressure 30.10 in    
Wind  
Wind Speed 3 mph (West)    
Max Wind Speed 13 mph    
Max Gust Speed 20 mph    
T = Trace of Precipitation, MM = Missing Value Source: NWS Daily Summary

Daily Weather History Graph

Daily Weather History Graph

Search for Another Location

Airport or City:

Trip Planner

Search our weather history database for the weather conditions in past years. The results will help you decide how hot, cold, wet, or windy it might be!

Date:

Astronomy

Oct. 27, 2014 Rise Set
Actual Time 8:10 AM MDT 6:36 PM MDT
Civil Twilight 7:40 AM MDT 7:06 PM MDT
Nautical Twilight 7:06 AM MDT 7:40 PM MDT
Astronomical Twilight 6:32 AM MDT 8:13 PM MDT
Moon 11:53 AM MDT 9:42 PM MDT
Length of Visible Light 11h 25m
Length of Day
10h 26m
Waxing Crescent, 16% of the Moon is Illuminated
Oct 27
Waxing Crescent
Oct 30
First Quarter
Nov 6
Full
Nov 14
Last Quarter
Nov 22
New

Hourly Weather History & Observations

Time (MDT) Temp. Windchill Dew Point Humidity Pressure Visibility Wind Dir Wind Speed Gust Speed Precip Events Conditions
12:51 AM 30.0 °F - 28.0 °F 92% 29.98 in - Calm Calm - 0.04 in   Unknown
1:51 AM 28.9 °F - 27.0 °F 92% 29.98 in - Calm Calm - 0.05 in   Unknown
2:51 AM 28.0 °F 18.1 °F 26.1 °F 92% 30.03 in - NW 11.5 mph 19.6 mph 0.03 in   Unknown
3:51 AM 26.1 °F 21.9 °F 21.9 °F 84% 30.02 in - West 3.5 mph - 0.05 in   Unknown
4:51 AM 21.9 °F - 19.0 °F 89% 30.06 in - Calm Calm - N/A   Unknown
5:51 AM 21.0 °F - 18.0 °F 88% 30.06 in - Calm Calm - N/A   Unknown
6:51 AM 21.0 °F 14.6 °F 18.0 °F 88% 30.08 in - South 4.6 mph - N/A   Unknown
7:51 AM 23.0 °F 17.0 °F 19.9 °F 88% 30.09 in - SSE 4.6 mph - N/A   Unknown
8:51 AM 24.1 °F - 21.0 °F 88% 30.11 in - Calm Calm - N/A   Unknown
9:51 AM 24.1 °F 19.7 °F 19.9 °F 84% 30.13 in - SE 3.5 mph - N/A   Unknown
10:51 AM 30.9 °F - 23.0 °F 72% 30.12 in - Calm Calm - N/A   Unknown
11:51 AM 32.0 °F 27.5 °F 21.9 °F 66% 30.12 in - NNW 4.6 mph - N/A   Unknown
12:51 PM 35.1 °F 31.0 °F 23.0 °F 61% 30.11 in - North 4.6 mph - N/A   Unknown
1:51 PM 35.1 °F 31.0 °F 21.9 °F 59% 30.09 in - NNW 4.6 mph - N/A   Unknown
2:51 PM 35.1 °F 31.0 °F 21.9 °F 59% 30.09 in - NNW 4.6 mph - N/A   Unknown
3:51 PM 35.1 °F 31.0 °F 23.0 °F 61% 30.09 in - NNW 4.6 mph - N/A   Unknown
4:51 PM 36.0 °F - 24.1 °F 62% 30.11 in - Calm Calm - N/A   Unknown
5:51 PM 35.1 °F 32.2 °F 25.0 °F 67% 30.12 in - Variable 3.5 mph - N/A   Unknown
6:51 PM 33.1 °F 30.0 °F 26.1 °F 75% 30.13 in - West 3.5 mph - N/A   Unknown
7:51 PM 30.9 °F - 27.0 °F 85% 30.14 in - Calm Calm - N/A   Unknown
8:51 PM 28.9 °F - 24.1 °F 82% 30.14 in - Calm Calm - N/A   Unknown
9:51 PM 25.0 °F 20.7 °F 21.9 °F 88% 30.17 in - South 3.5 mph - N/A   Unknown
10:51 PM 23.0 °F 18.4 °F 19.9 °F 88% 30.17 in - South 3.5 mph - N/A   Unknown
11:51 PM 21.9 °F 17.2 °F 19.0 °F 89% 30.18 in - South 3.5 mph - N/A   Unknown